EHI
0 0 0 0 0 0 0 0 0 0 0 0 0 0 0 0 0 0 0 0 0 0 0 0 0 0 0 0 0 0 0 0 0 0 0 0 0 0 0 0 0 0 0
0 0 0 0 0 0 0 0 0 0 0 0 0 0 0 0 0 0 0 0 0 0 0 0 0 0 0 0 0 0 0 0 0 0 0 0 0 0 0 0 0 0 0
0 0 0 0 0 0 0 0 0 0 0 0 0 0 0 0 0 0 0 0 0 0 0 0 0 0 0 0 0 0 0 0 0 0 0 0 0 0 0 0 0 0 0
0 0 0 0 0 0 0 0 0 0 0 0 0 0 0 0 0 0 0 0 0 0 0 0 0 0 0 0 0 0 0 0 0 0 0 0 0 0 0 0 0 0 0
0 0 0 0 0 0 0 0 0 0 0 0 0 0 0 0 0 0 0 0 0 0 0 0 0 0 0 0 0 0 0 0 0 0 0 0 0 0 0 0 0 0 0
0 0 0 0 0 0 0 0 0 0 0 0 0 0 0 0 0 0 0 0 0 0 0 0 0 0 0 0 0 0 0 0 0 0 0 0 0 0 0 0 0 0 0
0 0 0 0 0 0 0 0 0 0 0 0 0 0 0 0 0 0 0 0 0 0 0 0 0 0 0 0 0 0 0 0 0 0 0 0 0 0 0 0 0 0 0
0 0 0 0 0 0 0 0 0 0 0 0 0 0 0 0 0 0 0 0 0 0 0 0 0 0 0 0 0 0 0 0 0 0 0 0 0 0 0 0 0 0 0
0 0 0 0 0 0 0 0 0 0 0 0 0 0 0 0 0 0 0 0 0 0 0 0 0 0 0 0 0 0 0 0 0 0 0 0 0 0 0 0 0 0 0
0 0 0 0 0 0 0 0 0 0 0 0 0 0 0 0 0 0 0 0 0 0 0 0 0 0 0 0 0 0 0 0 0 0 0 0 0 0 0 0 0 0 0
0 0 0 0 0 0 0 0 0 0 0 0 0 0 0 0 0 0 0 0 0 0 0 0 0 0 0 0 0 0 0 0 0 0 0 0 0 0 0 0 0 0 0
0 0 0 0 0 0 0 0 0 0 0 0 0 0 0 0 0 0 0 0 0 0 0 0 0 0 0 0 0 0 0 0 0 0 0 0 0 0 0 0 0 0 0
0 0 0 0 0 0 0 0 0 0 0 0 0 0 0 0 0 0 0 0 0 0 0 0 0 0 0 0 0 0 0 0 0 0 0 0 0 0 0 0 0 0 0
0 0 0 0 0 0 0 0 0 0 0 0 0 0 0 0 0 0 0 0 0 0 0 0 0 0 0 0 0 0 0 0 0 0 0 0 0 0 0 0 0 0 0
0 0 0 0 0 0 0 0 0 0 0 0 0 0 0 0 0 0 0 0 0 0 0 0 0 0 0 0 0 0 0 0 0 0 0 0 0 0 0 0 0 0 0
0 0 0 0 0 0 0 0 0 0 0 0 0 0 0 0 0 0 0 0 0 0 0 0 0 0 0 0 0 0 0 0 0 0 0 0 0 0 0 0 0 0 0
0 0 0 0 0 0 0 0 0 0 0 0 0 0 0 0 0 0 0 0 0 0 0 0 0 0 0 0 0 0 0 0 0 0 0 0 0 0 0 0 0 0 0
0 0 0 0 0 0 0 0 0 0 0 0 0 0 0 0 0 0 0 0 0 0 0 0 0 0 0 0 0 0 0 0 0 0 0 0 0 0 0 0 0 0 0
0 0 0 0 0 0 0 0 0 0 0 0 0 0 0 0 0 0 0 0 0 0 0 0 0 0 0 0 0 0 0 0 0 0 0 0 0 0 0 0 0 0 0
0 0 0 0 0 0 0 0 0 0 0 0 0 0 0 0 0 0 0 0 0 0 0 0 0 0 0 0 0 0 0 0 0 0 0 0 0 0 0 0 0 0 0
0 0 0 0 0 0 0 0 0 0 0 0 0 0 0 0 0 0 0 0 0 0 0 0 0 0 0 0 0 0 0 0 0 0 0 0 0 0 0 0 0 0 0
0 0 0 0 0 0 0 0 0 0 0 0 0 0 0 0 0 0 0 0 0 0 0 0 0 0 0 0 0 0 0 0 0 0 0 0 0 0 0 0 0 0 0
0 0 0 0 0 0 0 0 0 0 0 0 0 0 0 0 0 0 0 0 0 0 0 0 0 0 0 0 0 0 0 0 0 0 0 0 0 0 0 0 0 0 0
0 0 0 0 0 0 0 0 0 0 0 0 0 0 0 0 0 0 0 0 0 0 0 0 0 0 0 0 0 0 0 0 0 0 0 0 0 0 0 0 0 0 0
0 0 0 0 0 0 0 0 0 0 0 0 0 0 0 0 0 0 0 0 0 0 0 0 0 0 0 0 0 0 0 0 0 0 0 0 0 0 0 0 0 0 0
0 0 0 0 0 0 0 0 0 0 0 0 0 0 0 0 0 0 0 0 0 0 0 0 0 0 0 0 0 0 0 0 0 0 0 0 0 0 0 0 0 0 0
Wind_Speed
1 2 2 2 2 2 2 3 3 3 3 4 4 5 5 5 6 6 6 7 7 7 6 6 6 5 4 4 3 4 4 3 4 2 2 3 5 5 4 4 4 4 4
1 1 1 1 1 2 2 2 3 3 3 4 4 4 4 5 5 6 6 7 7 7 7 6 6 5 6 5 4 5 4 4 4 4 3 4 5 5 4 5 4 4 4
1 1 1 1 2 2 2 2 2 2 3 3 3 4 4 4 5 5 6 6 6 7 6 7 7 7 7 5 5 5 4 3 3 4 3 2 3 3 4 4 5 4 4
1 1 1 1 2 2 2 2 2 2 2 2 3 3 3 3 4 4 5 5 5 5 5 6 6 7 7 7 5 6 5 5 4 4 4 3 3 3 4 4 4 4 4
1 1 1 1 1 1 1 1 1 1 2 2 2 2 2 2 3 3 4 4 5 4 4 5 5 5 6 6 5 6 6 5 5 4 4 4 4 4 5 4 4 4 4
2 2 1 1 1 1 1 1 1 1 1 2 2 2 2 2 2 3 3 4 4 5 5 4 4 5 6 8 8 8 8 7 7 6 6 6 7 6 5 4 4 4 4
2 2 2 1 1 1 1 1 1 1 1 1 2 2 2 2 3 4 4 4 4 4 4 4 4 4 6 6 7 8 8 9 9 8 7 8 7 6 6 6 6 5 5
2 2 2 2 2 2 1 1 2 1 1 1 2 2 2 2 3 4 4 4 4 4 4 5 5 5 6 6 5 6 6 7 7 7 7 7 6 5 6 6 6 5 4
3 3 2 2 2 2 2 2 2 2 1 1 2 2 2 2 3 4 4 3 3 4 4 4 5 6 6 7 6 6 6 5 5 6 5 5 5 6 6 4 4 4 4
3 3 3 2 2 2 2 2 2 2 2 1 2 2 2 2 3 4 5 3 3 3 3 4 5 6 6 8 7 6 7 5 4 4 5 5 6 7 8 7 5 5 4
3 3 3 2 2 2 2 2 2 2 2 1 2 2 2 2 3 4 5 3 3 3 3 3 3 6 7 8 7 6 6 5 4 4 4 4 4 4 5 5 5 5 5
3 3 3 3 2 2 2 2 2 1 1 1 1 1 1 1 2 3 4 3 3 3 3 3 3 5 7 7 6 6 6 5 4 4 4 4 4 4 4 4 4 4 5
2 2 2 2 2 2 2 2 1 1 1 1 1 1 1 1 1 2 3 3 3 2 2 3 4 5 5 5 5 6 5 4 4 4 4 4 3 3 3 2 3 3 4
3 3 2 2 2 2 2 2 1 1 1 1 1 1 1 1 1 1 1 1 2 1 1 2 2 2 2 2 3 3 3 3 3 4 3 3 2 2 3 3 3 3 3
3 3 3 3 2 2 2 2 2 2 2 2 2 1 2 2 2 3 3 2 2 1 1 0 0 1 1 1 1 1 2 2 3 3 3 2 2 3 3 3 3 3 4
2 3 3 2 2 2 1 2 3 2 3 3 3 3 2 2 3 3 3 2 2 1 1 1 1 1 1 1 2 2 2 2 2 3 3 3 3 3 3 2 3 4 4
3 3 2 2 2 2 2 2 2 3 3 3 3 3 3 3 3 2 2 2 1 1 1 1 1 1 1 1 2 2 2 2 2 2 3 3 3 3 3 3 4 4 4
3 3 3 2 2 2 2 2 2 2 2 2 3 3 4 3 3 2 1 1 1 1 1 1 2 2 2 2 2 2 2 2 2 2 3 3 3 3 4 4 4 5 4
4 3 3 3 3 2 2 2 2 2 2 2 2 2 3 3 2 2 2 1 1 1 1 1 1 2 2 2 2 2 2 2 2 2 3 3 3 3 4 4 4 5 5
3 5 4 3 2 2 2 2 2 2 2 2 2 2 3 2 2 2 2 2 1 2 2 1 1 1 2 2 2 2 2 2 2 3 3 2 3 3 4 5 4 4 4
3 4 5 3 3 3 3 3 2 2 2 3 2 3 4 3 2 2 2 2 2 2 2 2 2 2 2 2 2 2 3 3 3 3 2 2 3 3 3 3 4 4 4
3 3 3 3 3 3 3 3 3 3 3 3 3 3 4 3 2 2 2 2 2 2 2 2 2 2 2 2 2 3 3 3 3 3 3 3 3 3 3 3 3 4 4
3 3 3 3 3 3 3 3 3 3 3 3 3 3 3 3 3 3 3 3 2 2 2 2 2 2 2 2 3 3 3 3 3 3 3 3 3 3 3 3 4 4 4
4 4 3 3 3 3 3 3 3 3 3 3 3 3 3 3 3 3 3 3 3 3 2 2 3 3 4 3 3 3 3 3 3 3 4 4 4 4 4 4 4 5 4
4 4 3 3 3 3 3 3 3 3 4 3 3 3 3 3 3 3 3 3 3 3 4 3 3 3 4 4 4 4 5 6 6 4 4 4 5 5 5 5 4 4 4
4 4 4 3 3 3 3 3 4 4 4 4 4 4 4 4 4 4 3 3 3 4 4 3 4 4 5 5 5 6 7 7 8 8 5 4 5 4 5 4 5 5 5
Wind_Direction
228 226 233 231 231 234 228 229 229 224 217 214 210 209 207 206 206 208 211 207 212 212 211 212 214 211 207 206 208 211 218 217 220 216 204 192 197 201 196 211 218 223 218
256 231 235 238 223 228 240 239 231 224 222 219 213 208 207 209 209 212 212 210 212 211 211 208 210 205 209 205 204 208 210 210 210 212 205 204 207 204 208 214 217 223 230
271 252 241 239 230 229 240 245 237 225 223 221 217 214 213 213 213 216 215 213 215 216 212 211 208 203 207 206 205 206 206 208 212 207 210 211 211 204 211 221 225 226 232
266 247 247 255 251 251 249 243 241 232 223 220 218 215 215 214 215 215 214 212 213 215 214 215 212 209 211 205 204 206 201 200 201 202 205 207 207 201 212 218 222 221 228
277 258 258 265 259 256 257 256 244 233 223 214 210 207 208 210 215 211 212 213 209 207 211 215 217 215 215 209 204 203 199 202 202 204 209 210 210 201 211 211 224 226 232
293 285 286 276 257 257 266 260 243 235 224 209 204 206 212 215 194 200 211 210 209 209 211 213 213 211 211 210 214 214 210 208 206 210 215 217 222 219 213 210 218 228 234
295 295 292 280 273 272 267 260 251 235 223 225 224 220 225 221 195 200 211 212 210 213 214 213 215 215 214 216 215 214 221 226 224 224 226 228 228 221 212 216 223 232 243
309 305 308 301 295 294 280 274 274 261 242 240 236 232 235 231 201 206 211 220 218 217 220 221 220 219 218 215 215 219 225 227 227 230 236 238 235 228 222 223 228 240 256
330 324 317 301 287 284 276 272 277 270 262 259 249 238 236 234 209 212 216 221 221 224 228 229 227 224 213 206 211 217 224 231 231 231 243 245 236 228 224 212 207 216 241
325 319 314 305 286 273 269 274 283 270 265 262 262 260 253 253 225 217 221 220 223 227 228 231 228 228 215 208 215 217 223 227 222 219 223 227 229 223 220 221 214 218 234
325 321 318 315 306 294 284 277 269 265 257 257 265 271 264 261 229 221 226 228 224 225 228 230 227 219 221 220 226 230 229 228 227 223 225 225 224 224 225 223 222 221 226
331 331 330 328 328 314 300 293 278 261 253 258 262 275 281 270 252 230 232 244 251 234 235 235 227 220 229 231 233 232 226 226 224 218 221 223 224 226 224 221 226 233 239
343 338 337 337 335 324 311 302 297 283 273 280 272 271 291 299 283 249 242 248 260 258 248 236 228 225 233 233 225 221 219 220 216 220 225 229 230 230 224 222 225 232 245
345 342 341 339 341 340 338 324 309 295 283 275 268 272 288 290 287 276 260 250 241 250 238 204 209 207 211 208 209 216 224 225 229 232 235 238 231 220 221 222 225 221 236
351 347 344 341 336 343 351 346 325 320 309 288 273 270 268 280 300 308 301 284 276 266 277 265 242 202 198 203 218 232 228 222 228 232 232 231 226 225 230 225 226 229 236
349 348 343 337 334 334 343 358 15 346 345 328 316 300 301 299 305 307 313 316 305 251 274 224 219 225 224 227 231 235 236 238 235 230 229 229 229 229 231 226 225 231 239
340 336 334 332 331 331 332 332 341 11 21 9 357 347 339 330 324 324 330 319 261 234 233 213 230 236 236 239 243 243 248 248 244 237 234 230 227 226 228 230 230 233 239
338 336 330 330 329 328 330 331 329 331 341 355 6 5 356 348 336 336 340 333 258 264 243 224 236 243 240 239 244 248 245 239 235 236 234 232 228 227 229 233 234 236 241
339 335 335 333 334 336 336 337 338 334 331 335 340 349 357 352 351 1 344 307 276 280 275 259 251 244 246 246 248 249 242 242 245 245 241 235 231 231 234 236 238 238 242
341 347 342 335 337 340 339 338 338 333 327 324 323 329 335 335 329 334 335 322 300 285 280 271 270 263 256 251 250 250 251 249 246 247 248 243 239 238 239 239 240 242 243
335 338 339 334 340 338 334 333 330 324 319 316 314 317 317 310 301 301 300 298 292 285 282 275 265 256 254 254 253 253 254 254 249 252 256 254 250 247 243 242 242 243 244
333 334 334 335 335 332 329 324 320 316 315 312 314 315 314 310 301 296 296 297 298 297 293 283 272 264 255 249 248 249 250 255 254 252 253 256 254 251 247 244 245 246 244
333 334 333 332 329 327 327 326 321 313 312 313 313 314 312 308 305 301 298 297 297 296 294 288 279 275 271 264 257 252 253 255 259 258 256 253 252 250 246 245 245 247 247
333 332 329 326 325 324 324 324 320 315 314 312 312 309 307 305 303 301 300 296 293 291 289 283 277 273 273 271 264 260 261 265 264 254 252 254 253 251 247 245 247 247 248
332 330 326 323 320 318 318 316 315 314 311 310 308 304 303 301 298 297 297 294 290 286 286 284 277 272 267 267 267 266 264 264 264 258 252 252 251 246 245 247 247 248 248
327 324 318 315 312 311 309 307 307 307 304 304 302 299 298 296 295 294 294 292 290 286 284 280 276 276 276 269 264 263 265 267 267 264 258 248 244 245 242 244 245 245 245